sat.trackr.live / text

‹ back to catalog

STARLINK-1770

NORAD 46383 · 2020-062BL

PAYLOAD ACTIVE UNKNOWN

§ Identity

Operator
Country
US
Launch date
2020-09-03
Launch site
AFETR
Launch vehicle
Mass (kg)
RCS (m²)

Purposes: comms

External: N2YO · Heavens-Above · Gunter

§ Orbital elements

Epoch: 2026-09-12T19:17:18.817728Z

Period
88.43 min
Inclination
53.0191°
Eccentricity
0.0010556
Mean motion
16.28425663 rev/d
Perigee alt
189.8 km
Apogee alt
203.7 km
Semi-major
6,574.9 km
B*
7.5490e-4
RAAN
94.5003°
Arg perigee
273.9867°
Mean anomaly
85.9968°
Rev number
33,477

§ Raw data

STARLINK-17701 46383U 20062BL  26255.80369002  .03097564  12041-4  75490-3 0  99962 46383  53.0191  94.5003 0010556 273.9867  85.9968 16.28425663334777

JSON: /api/v1/satellites/46383 · /tle

For live sub-satellite position, see the globe view (requires WebGL).

§ Visibility from observer

Set your observer location to see the next 7 days of passes ≥ 10°. The values pass through the URL so the page stays shareable.

No JS? Fill the form by hand. The geolocation button needs JavaScript.